Regional Weather Roundup
Issued by NWS

Home | Current Version | Previous Version | Graphics & Text | Print | Product List | Glossary On
Versions: 1 2 3 4 5 6 7 8 9 10 11 12 13 14 15 16 17 18 19 20 21 22 23 24 25 26 27 28 29 30 31 32 33 34 35 36 37 38 39 40 41 42 43 44 45 46 47 48 49 50
000
ASUS43 KDMX 311607
RWRIA

WEATHER ROUNDUP FOR IOWA
NATIONAL WEATHER SERVICE DES MOINES IA
1000 AM CST SAT JAN 31 2015

NOTE: "FAIR" INDICATES FEW OR NO CLOUDS BELOW 12,000 FEET WITH NO
SIGNIFICANT WEATHER AND/OR OBSTRUCTIONS TO VISIBILITY.

* - THESE STATIONS ARE NOT NWS STATIONS...THUS NOT UNDER NWS
QUALITY CONTROL.  THEY ALSO DO NOT REPORT WEATHER SUCH
AS PRECIPITATION OR FOG.

IAZ001>003-012>014-020>022-031>034-043>046-311700-
   NORTHWEST IOWA

CITY           SKY/WX    TMP DP  RH WIND       PRES   REMARKS
CARROLL *      CLOUDY    36  34  93 SW15      30.14S WCI  26
CHEROKEE *     CLOUDY    32  32 100 NE5       30.13S WCI  27
DENISON *      FOG       36  36 100 S10G16    30.12S VSB 3/4 WCI  28
LE MARS *      CLOUDY    36  34  93 S3        30.12S
ORANGE CITY *  CLOUDY    30  27  86 E7        30.11F WCI  23
SHELDON *      CLOUDY    27  27 100 NE14G20   30.12F FOG     WCI  15
SIOUX CITY     CLOUDY    36  33  89 SE6       30.12S WCI  31
SPENCER        CLOUDY    28  24  85 N12       30.15S WCI  18
STORM LAKE *   CLOUDY    36  34  93 SW7       30.13S WCI  30
$$

IAZ055>058-069>071-079>083-090>094-311700-
   SOUTHWEST IOWA

CITY           SKY/WX    TMP DP  RH WIND       PRES   REMARKS
ATLANTIC *     CLOUDY    36  36 100 SW13      30.16F WCI  27
AUDUBON *      DRIZZLE   36  34  93 S8        30.16F WCI  29
CLARINDA *     MIX PCPN  36  36 100 S10       30.21R WCI  28
COUNCIL BLFS * MIX PCPN  34  34 100 S8        30.14S WCI  27
CRESTON *      MIX PCPN  36  36 100 SW12      30.18F WCI  27
HARLAN  *      CLOUDY    36  36 100 SW12      30.18F WCI  27
LAMONI         LGT RAIN  34  33  96 S8        30.21F FOG     WCI  27
RED OAK *      MIX PCPN  36  36 100 S12       30.17F WCI  27
SHENANDOAH *   CLOUDY    36  36 100 S13       30.19S FOG     WCI  27
$$

IAZ047>049-059>061-072>074-084-311700-
   CENTRAL IOWA

CITY           SKY/WX    TMP DP  RH WIND       PRES   REMARKS
AMES           CLOUDY    36  31  82 SW6       30.17S WCI  31
ANKENY *       CLOUDY    37  34  87 SW9       30.19S WCI  31
CHARITON *     CLOUDY    36  32  87 SW8G14    30.21S WCI  29
DES MOINES     CLOUDY    39  33  79 SW6       30.19S WCI  35
GRINNELL*      CLOUDY    34  30  86 SW8       30.19F WCI  27
KNOXVILLE *    CLOUDY    37  32  81 SW10      30.19S WCI  30
MARSHALLTOWN   CLOUDY    35  29  78 SW9       30.17R WCI  28
PELLA *        CLOUDY    37  32  81 SW8       30.22S WCI  31
PERRY *          N/A     37  36  93 SW12      30.17F WCI  30
$$

IAZ004>006-015-016-023>025-035-036-311700-
   NORTH CENTRAL IOWA

CITY           SKY/WX    TMP DP  RH WIND       PRES   REMARKS
ALGONA *       MOSUNNY   28  28 100 N9        30.16S WCI  20
CLARION *      CLOUDY    32  32 100 S6        30.16S WCI  26
ESTHERVILLE    CLOUDY    25  23  92 N12       30.15S FOG     WCI  14
FORT DODGE *   CLOUDY    34  28  80 CALM      30.16S
MASON CITY     CLOUDY    31  26  82 W5        30.17R WCI  26
FOREST CITY *  MOSUNNY   28  27  93 CALM      30.16R
IOWA FALLS *   CLOUDY    32  28  86 CALM      30.18R
$$

IAZ007>011-017>019-026>030-037>042-050>054-066-311700-
   NORTHEAST IOWA

CITY           SKY/WX    TMP DP  RH WIND       PRES   REMARKS
CEDAR RAPIDS   CLOUDY    36  30  79 SW8       30.19R WCI  30
CHARLES CITY * PTSUNNY   28  27  93 CALM      30.18R
CLINTON *      CLOUDY    34  25  69 W12       30.24S WCI  25
DECORAH *      CLOUDY    25  19  80 CALM      30.16R
DUBUQUE        PTSUNNY   29  23  78 SW8       30.18S WCI  21
MONTICELLO *   PTSUNNY   32  28  86 SW7       30.20R WCI  26
OELWEIN *      PTSUNNY   30  25  80 SW7       30.18R WCI  23
WATERLOO       CLOUDY    32  26  78 W5        30.18R WCI  27
$$

IAZ064-065-067-068-078-311700-
   EAST CENTRAL IOWA

CITY           SKY/WX    TMP DP  RH WIND       PRES   REMARKS
DAVENPORT      CLOUDY    34  26  72 SW13      30.22S WCI  25
IOWA CITY      CLOUDY    35  29  78 W3        30.23R
MT. PLEASANT * CLOUDY    34  27  75 SW7       30.24S WCI  28
MUSCATINE *    CLOUDY    36  27  69 S5        30.25S WCI  32
QUAD CITIES    CLOUDY    35  26  69 SW8       30.23R WCI  29
$$

IAZ062-063-075>077-085>089-095>099-311700-
   SOUTHEAST IOWA

CITY           SKY/WX    TMP DP  RH WIND       PRES   REMARKS
BURLINGTON     CLOUDY    35  26  69 SW8       30.24F WCI  29
FAIRFIELD *    CLOUDY    34  27  75 SW8       30.23S WCI  27
FORT MADISON * PTSUNNY   34  25  69 SW8       30.26R WCI  27
KEOKUK *       CLOUDY    34  25  69 SW9       30.26R WCI  26
OSKALOOSA *    CLOUDY    34  30  86 SW6       30.22S WCI  29
CENTERVILLE *  CLOUDY    36  32  87 SW9       30.24S WCI  29
OTTUMWA        CLOUDY    36  29  75 SW8       30.22S WCI  30
WASHINGTON *   CLOUDY    36  30  80 SW9       30.23S WCI  29
$$

ABBREVIATIONS USED IN REMARKS
   TC - TEMPERATURES IN CELSIUS
  WCI - WIND CHILL INDEX
   HX - HEAT INDEX
  VSB - VISIBILITY
$$



USA.gov is the U.S. government's official web portal to all federal, state and local government web resources and services.